SCP
0 0 0 0 0 0 1 1 0 0 0 0 0 0 0 0 0 0 0 0 0 0 0 0 0 0 0 0 0 0 0 0 0 0 0 0 0 0 0 0 0 0 0
0 0 0 0 0 0 0 1 1 0 0 0 0 0 0 0 0 0 0 0 0 0 0 0 0 0 0 0 0 0 0 0 0 0 0 0 0 0 0 0 0 0 0
0 0 0 0 0 0 0 0 1 0 0 0 0 0 0 0 0 0 0 0 0 0 0 0 0 0 0 0 0 0 0 0 0 0 0 0 0 0 0 0 0 0 0
0 0 0 0 0 0 0 0 0 0 0 0 0 0 0 0 0 0 0 0 0 0 0 0 0 0 0 0 0 0 0 0 0 0 0 0 0 0 0 0 0 0 0
0 0 0 0 0 0 0 0 0 0 0 0 0 0 0 0 0 0 0 0 0 0 0 0 0 0 0 0 0 0 0 0 0 0 0 0 0 0 0 0 0 0 0
0 0 0 0 0 0 0 0 0 0 0 0 0 0 0 0 0 0 0 0 0 0 0 0 0 0 0 0 0 0 0 0 0 0 0 0 0 0 0 0 0 0 0
0 0 0 0 0 0 0 0 0 0 0 0 0 0 0 0 0 0 0 0 0 0 0 0 0 0 0 0 0 0 0 0 0 0 0 0 0 0 0 0 0 0 0
0 0 0 0 0 0 0 0 0 0 0 0 0 0 0 0 0 0 0 0 0 0 0 0 0 0 0 0 0 0 0 0 0 0 0 0 0 0 0 0 0 0 0
0 0 0 0 0 0 0 0 0 0 0 0 0 0 0 0 0 0 0 0 0 0 0 0 0 0 0 0 0 0 0 0 0 0 0 0 0 0 0 0 0 0 0
0 0 0 0 0 0 0 0 0 0 0 0 0 0 0 0 0 0 0 0 0 0 0 0 0 0 0 0 0 0 0 0 0 0 0 0 0 0 0 0 0 0 0
0 0 0 0 0 0 0 0 0 0 0 0 0 0 0 0 0 0 0 0 0 0 0 0 0 0 0 0 0 0 0 0 0 0 0 0 0 0 0 0 0 0 0
0 0 0 0 0 0 0 0 0 0 0 0 0 0 0 0 0 0 0 0 0 0 0 0 0 0 0 0 0 0 0 0 0 0 0 0 0 0 0 0 0 0 0
0 0 0 0 0 0 0 0 0 0 0 0 0 0 0 0 0 0 0 0 0 0 0 0 0 0 0 0 0 0 0 0 0 0 0 0 0 0 0 0 0 0 0
0 0 0 0 0 0 0 0 0 0 0 0 0 0 0 0 0 0 0 0 0 0 0 0 0 0 0 0 0 0 0 0 0 0 0 0 0 0 0 0 0 0 0
-0 0 0 0 0 0 0 0 0 0 0 0 0 0 0 0 0 0 0 0 0 0 0 0 0 0 0 0 0 0 0 0 0 0 0 0 0 0 0 0 0 0 0
0 0 0 0 0 0 0 0 0 0 0 0 0 0 0 0 0 0 0 0 0 0 0 0 0 0 0 0 0 0 0 0 0 0 0 0 0 0 0 0 0 0 0
0 0 0 0 0 0 0 0 0 0 0 0 0 0 0 0 0 0 0 0 0 0 0 0 0 0 0 0 0 0 0 0 0 0 0 0 0 0 0 0 0 0 0
0 0 0 0 0 0 0 0 0 0 0 0 0 0 0 0 0 0 0 0 0 0 0 0 0 0 0 0 0 0 0 0 0 0 0 0 0 0 0 0 0 0 0
0 0 0 0 0 0 0 0 0 0 0 0 0 0 0 0 0 0 0 0 0 0 0 0 0 0 0 0 0 0 0 0 0 0 0 0 0 0 0 0 0 0 0
-0 -0 0 -0 0 0 0 0 0 0 0 0 0 0 0 0 0 0 0 0 0 0 0 0 0 0 0 0 0 0 0 0 0 0 0 0 0 0 0 0 0 0 0
-0 -0 0 0 0 0 0 0 0 0 0 0 0 0 0 0 0 0 0 0 0 0 0 0 0 0 0 0 0 0 0 0 0 0 0 0 0 0 0 0 0 0 0
-0 0 -0 -0 -0 0 -0 0 0 0 0 0 0 0 0 0 0 0 0 0 0 0 0 0 0 0 0 0 0 0 0 0 0 0 0 0 0 0 0 0 0 0 0
-0 -0 -0 -0 -0 -0 -0 -0 0 0 0 0 0 0 0 0 0 0 0 0 0 0 0 0 0 0 0 0 0 0 0 0 0 0 0 0 0 0 0 0 0 0 0
-0 -0 -0 -0 -0 -0 -0 -0 -0 0 0 0 0 0 0 0 0 0 0 0 0 0 0 0 0 0 0 0 0 0 0 0 0 0 0 0 0 0 0 0 0 0 0
-0 -0 -0 -0 -0 -0 -0 -0 -0 -0 0 0 0 0 0 0 0 0 0 0 0 0 0 0 0 0 0 0 0 0 0 0 0 0 0 0 0 0 0 0 0 0 0
-0 -0 -0 -0 -0 -0 -0 -0 -0 0 0 0 0 0 0 0 0 0 0 0 0 0 0 0 0 0 0 0 0 0 0 0 0 0 0 0 0 0 0 0 0 0 0
Wind_Speed_500mb
79 105 80 60 75 75 67 65 60 81 80 86 85 88 86 83 77 79 77 72 70 67 67 65 63 59 58 56 50 45 43 41 40 36 31 27 26 27 28 28 28 26 26
78 64 96 99 67 79 74 73 70 64 89 87 78 85 92 87 82 85 82 77 73 69 68 71 72 67 65 60 55 52 50 49 46 39 26 17 26 33 31 31 30 30 27
61 72 57 84 90 89 89 87 85 81 75 76 85 83 86 91 91 90 86 83 81 79 76 74 76 75 72 65 60 58 59 58 50 46 27 16 17 22 23 23 24 25 23
59 54 43 69 78 74 76 79 78 78 78 77 79 86 88 95 103 99 95 92 90 85 78 79 80 80 73 69 67 66 62 58 54 51 53 41 20 19 16 20 22 24 26
78 65 61 40 49 57 62 67 66 75 80 75 75 81 91 94 91 97 97 95 93 87 83 85 87 84 79 75 72 70 66 63 60 58 57 57 49 41 33 24 30 31 30
82 75 65 57 52 46 44 50 55 72 78 68 74 80 86 89 91 91 92 98 95 93 91 86 91 88 84 82 78 72 69 67 62 60 59 58 57 54 48 40 37 32 34
81 75 68 68 59 47 40 47 55 69 74 70 66 76 84 88 88 92 92 90 96 100 100 95 95 96 92 87 84 78 73 70 69 65 62 59 57 54 47 43 39 40 39
25 30 20 40 49 47 49 48 52 56 64 73 73 76 77 84 86 84 82 87 89 90 92 97 98 98 97 91 88 84 77 73 70 68 65 61 59 55 51 46 44 40 40
51 38 24 22 33 35 37 47 48 50 50 59 66 67 70 78 84 83 84 84 85 85 83 85 95 100 99 97 93 90 83 78 72 71 69 64 60 55 52 49 46 45 40
42 30 20 11 4 14 27 36 45 47 54 57 56 63 68 74 75 79 80 85 85 83 82 78 81 91 98 98 97 92 86 79 76 73 70 66 61 57 54 50 49 48 46
41 34 26 21 12 12 17 24 32 41 51 54 57 56 63 68 70 74 78 84 81 83 80 74 72 77 87 95 99 95 89 84 79 76 72 67 63 59 54 52 50 48 47
32 32 32 29 22 16 15 15 22 28 36 46 57 54 53 57 62 67 73 75 79 76 76 69 63 70 81 88 95 96 93 89 84 79 75 69 64 61 56 52 49 47 46
38 34 34 31 26 23 20 13 9 14 23 31 44 58 50 52 56 60 63 70 75 76 75 70 68 75 83 89 96 97 94 91 86 80 75 70 65 60 55 52 49 47 45
43 36 35 32 29 28 27 26 22 13 8 11 24 39 49 44 47 51 55 60 68 74 76 73 71 73 76 79 94 96 97 92 86 80 74 69 64 58 54 51 48 45 43
45 46 41 36 31 30 31 28 27 25 19 11 3 14 27 33 38 43 46 49 56 63 67 70 71 73 77 80 87 96 96 92 85 79 73 67 61 55 51 49 47 45 44
49 48 40 38 35 33 32 31 30 28 23 21 14 5 7 20 28 34 38 43 48 52 58 64 68 72 76 80 82 87 96 93 86 81 74 66 60 56 53 50 49 47 44
52 53 48 41 38 36 33 31 30 28 26 23 19 13 5 6 12 19 27 36 41 45 51 56 61 66 70 73 76 80 89 89 85 78 69 64 58 54 49 44 44 45 41
50 48 45 43 40 34 32 29 27 26 26 25 24 20 16 10 3 12 20 27 34 39 43 48 52 57 59 64 68 73 79 79 74 69 66 63 63 60 52 46 47 44 42
40 38 38 38 36 36 33 30 28 27 24 23 21 20 19 17 13 7 6 14 21 27 32 38 44 50 51 57 61 61 73 74 68 64 61 56 52 50 44 49 49 46 44
40 38 36 34 33 33 33 31 32 28 28 26 22 17 13 10 10 8 5 2 5 13 19 25 29 34 42 51 50 55 65 64 60 52 48 45 43 44 46 46 45 46 43
37 36 39 42 41 37 33 33 31 32 29 24 20 16 12 9 6 4 5 4 6 9 14 19 23 26 34 38 38 44 48 50 49 48 48 48 47 46 44 41 43 43 33
38 38 38 40 39 36 35 34 32 31 27 24 21 18 14 11 8 6 6 9 11 14 17 21 25 30 34 34 33 37 39 41 43 46 45 43 42 40 37 38 38 34 29
39 41 43 40 38 37 37 34 33 30 27 24 22 20 18 13 10 8 7 8 11 16 18 22 25 29 33 37 40 38 36 37 39 40 39 37 36 35 36 35 34 32 34
39 40 40 40 40 39 36 32 31 29 27 24 23 21 17 15 11 7 6 6 9 11 14 18 22 26 29 35 41 44 42 32 29 31 31 30 31 34 36 38 38 35 34
37 40 42 42 40 36 35 34 32 28 25 24 20 18 18 15 12 10 8 6 6 9 10 13 16 18 23 27 32 39 45 42 35 30 27 30 34 35 35 35 36 36 36
38 40 42 43 44 42 37 34 31 30 26 22 22 18 16 14 12 10 8 8 7 8 10 10 12 12 13 16 22 28 39 41 39 31 29 31 30 33 34 33 31 30 27
Wind_Direction_500mb
252 238 233 239 226 221 220 226 219 215 212 206 214 218 220 220 218 221 223 223 225 227 223 226 226 222 223 224 224 221 223 222 219 219 220 228 240 248 252 260 264 267 267
249 251 226 229 233 218 223 223 225 217 216 224 225 230 226 222 227 225 224 225 227 229 232 228 229 226 224 221 220 223 222 222 221 219 219 224 236 241 244 249 255 261 262
246 243 236 223 229 227 224 230 227 228 226 224 223 227 229 223 222 224 225 226 227 228 227 231 228 229 227 225 224 228 227 227 220 218 212 196 213 208 228 239 243 254 258
264 242 240 224 221 222 225 226 215 222 224 222 219 218 219 222 224 225 224 225 226 226 226 229 231 230 229 227 227 229 230 229 227 219 221 222 211 193 206 227 240 251 259
245 248 243 247 225 226 233 229 222 216 220 221 224 219 219 224 228 228 227 228 229 230 226 227 231 231 231 231 230 229 228 231 229 225 225 226 229 234 235 239 244 251 259
233 236 241 246 245 237 226 227 217 214 224 224 228 226 222 219 220 227 228 228 227 229 231 228 230 232 231 232 233 232 233 233 236 233 232 235 235 238 237 236 244 252 256
228 227 225 233 240 227 215 217 233 222 222 224 220 226 226 221 223 227 229 230 229 228 230 230 228 231 232 231 233 233 234 234 235 236 236 236 238 243 244 242 241 244 253
164 161 163 168 179 200 213 215 222 222 224 226 226 222 226 223 222 226 231 235 237 236 234 233 232 231 232 233 233 235 235 235 233 235 236 237 239 243 244 245 243 241 248
42 63 93 121 147 157 170 197 210 213 224 235 234 232 229 225 222 222 228 235 240 243 241 239 235 233 234 233 233 234 234 232 233 234 236 237 238 239 242 244 245 245 243
20 25 21 14 135 215 214 211 214 216 217 220 228 235 231 232 230 224 221 231 238 244 244 239 238 236 237 237 234 233 233 232 233 233 234 236 237 238 240 244 245 245 246
26 21 10 2 342 285 257 241 233 227 224 224 222 225 233 234 232 229 229 229 235 239 244 242 239 240 239 237 235 233 232 232 232 232 233 234 236 239 241 243 244 245 246
30 34 30 21 7 340 311 280 259 247 236 227 222 220 224 229 231 232 229 228 232 239 244 243 240 243 242 239 236 233 231 231 231 231 231 231 234 237 239 241 244 246 246
31 42 44 39 31 24 20 8 318 274 256 241 227 221 220 224 228 231 230 227 229 236 238 239 238 237 238 237 235 233 230 230 230 230 230 232 233 235 238 241 243 244 246
28 39 48 41 39 36 38 38 34 17 334 265 234 225 221 223 227 231 232 231 232 235 238 238 240 240 238 239 236 232 228 226 227 227 229 231 233 236 237 238 241 243 247
21 28 39 35 36 37 38 43 42 39 36 25 293 228 227 229 228 226 229 232 234 236 239 241 240 239 238 234 236 230 227 224 223 223 224 226 228 230 233 235 237 240 244
18 27 36 35 32 34 35 37 41 43 43 44 41 2 257 234 232 234 233 231 232 234 236 238 238 239 239 236 233 229 227 222 222 222 220 220 221 224 228 231 233 239 246
19 25 29 31 28 29 30 34 34 36 42 44 42 39 21 275 251 239 238 237 235 235 237 239 240 240 239 238 235 230 223 221 217 217 218 218 220 224 227 237 245 248 251
21 23 25 27 28 29 32 29 31 34 35 36 36 32 33 28 305 238 239 239 239 237 237 238 238 238 239 239 234 229 218 216 215 216 215 216 220 225 228 233 237 241 245
24 23 25 25 28 32 30 27 31 30 29 34 32 26 22 21 24 9 271 247 244 240 237 236 234 234 231 229 232 225 210 209 211 213 221 223 224 223 224 232 237 237 241
23 23 29 30 32 32 30 25 28 27 31 26 22 17 14 13 10 8 4 322 247 241 236 230 225 225 219 216 217 209 207 205 208 212 217 222 228 229 231 235 236 236 237
23 28 33 31 29 25 24 26 25 28 24 18 14 9 1 346 331 307 274 231 195 200 198 201 198 198 199 200 202 204 206 209 209 214 218 222 225 227 228 230 233 239 235
31 32 32 32 29 28 27 24 20 17 12 9 6 4 2 353 331 296 258 235 216 214 206 198 193 187 190 196 202 207 210 214 219 221 221 222 219 220 220 222 231 229 231
32 30 27 26 24 21 19 19 16 10 6 4 3 1 358 351 341 313 281 245 222 219 217 216 215 212 206 205 204 205 218 215 215 220 222 218 215 214 215 218 219 218 220
26 23 22 21 19 15 11 7 1 359 359 1 358 356 352 348 343 324 293 260 235 231 225 228 223 221 217 212 212 208 204 207 210 213 214 215 210 207 208 203 205 212 214
18 10 6 4 360 359 357 355 351 347 346 345 348 352 347 342 333 324 308 284 255 234 226 226 233 229 225 218 213 208 205 202 204 194 193 188 192 194 198 203 209 213 217
7 2 357 349 342 338 335 334 337 337 334 330 328 338 337 330 326 323 327 308 279 243 227 225 224 222 212 199 196 199 201 197 196 196 195 195 200 203 206 210 214 215 215
Wind_Speed_850mb
79 105 80 60 75 75 67 65 60 81 80 86 85 88 86 83 77 79 77 72 70 67 67 65 63 59 58 56 50 45 43 41 40 36 31 27 26 27 28 28 28 26 26
78 64 96 99 67 79 74 73 70 64 89 87 78 85 92 87 82 85 82 77 73 69 68 71 72 67 65 60 55 52 50 49 46 39 26 17 26 33 31 31 30 30 27
61 72 57 84 90 89 89 87 85 81 75 76 85 83 86 91 91 90 86 83 81 79 76 74 76 75 72 65 60 58 59 58 50 46 27 16 17 22 23 23 24 25 23
59 54 43 69 78 74 76 79 78 78 78 77 79 86 88 95 103 99 95 92 90 85 78 79 80 80 73 69 67 66 62 58 54 51 53 41 20 19 16 20 22 24 26
78 65 61 40 49 57 62 67 66 75 80 75 75 81 91 94 91 97 97 95 93 87 83 85 87 84 79 75 72 70 66 63 60 58 57 57 49 41 33 24 30 31 30
82 75 65 57 52 46 44 50 55 72 78 68 74 80 86 89 91 91 92 98 95 93 91 86 91 88 84 82 78 72 69 67 62 60 59 58 57 54 48 40 37 32 34
81 75 68 68 59 47 40 47 55 69 74 70 66 76 84 88 88 92 92 90 96 100 100 95 95 96 92 87 84 78 73 70 69 65 62 59 57 54 47 43 39 40 39
25 30 20 40 49 47 49 48 52 56 64 73 73 76 77 84 86 84 82 87 89 90 92 97 98 98 97 91 88 84 77 73 70 68 65 61 59 55 51 46 44 40 40
51 38 24 22 33 35 37 47 48 50 50 59 66 67 70 78 84 83 84 84 85 85 83 85 95 100 99 97 93 90 83 78 72 71 69 64 60 55 52 49 46 45 40
42 30 20 11 4 14 27 36 45 47 54 57 56 63 68 74 75 79 80 85 85 83 82 78 81 91 98 98 97 92 86 79 76 73 70 66 61 57 54 50 49 48 46
41 34 26 21 12 12 17 24 32 41 51 54 57 56 63 68 70 74 78 84 81 83 80 74 72 77 87 95 99 95 89 84 79 76 72 67 63 59 54 52 50 48 47
32 32 32 29 22 16 15 15 22 28 36 46 57 54 53 57 62 67 73 75 79 76 76 69 63 70 81 88 95 96 93 89 84 79 75 69 64 61 56 52 49 47 46
38 34 34 31 26 23 20 13 9 14 23 31 44 58 50 52 56 60 63 70 75 76 75 70 68 75 83 89 96 97 94 91 86 80 75 70 65 60 55 52 49 47 45
43 36 35 32 29 28 27 26 22 13 8 11 24 39 49 44 47 51 55 60 68 74 76 73 71 73 76 79 94 96 97 92 86 80 74 69 64 58 54 51 48 45 43
45 46 41 36 31 30 31 28 27 25 19 11 3 14 27 33 38 43 46 49 56 63 67 70 71 73 77 80 87 96 96 92 85 79 73 67 61 55 51 49 47 45 44
49 48 40 38 35 33 32 31 30 28 23 21 14 5 7 20 28 34 38 43 48 52 58 64 68 72 76 80 82 87 96 93 86 81 74 66 60 56 53 50 49 47 44
52 53 48 41 38 36 33 31 30 28 26 23 19 13 5 6 12 19 27 36 41 45 51 56 61 66 70 73 76 80 89 89 85 78 69 64 58 54 49 44 44 45 41
50 48 45 43 40 34 32 29 27 26 26 25 24 20 16 10 3 12 20 27 34 39 43 48 52 57 59 64 68 73 79 79 74 69 66 63 63 60 52 46 47 44 42
40 38 38 38 36 36 33 30 28 27 24 23 21 20 19 17 13 7 6 14 21 27 32 38 44 50 51 57 61 61 73 74 68 64 61 56 52 50 44 49 49 46 44
40 38 36 34 33 33 33 31 32 28 28 26 22 17 13 10 10 8 5 2 5 13 19 25 29 34 42 51 50 55 65 64 60 52 48 45 43 44 46 46 45 46 43
37 36 39 42 41 37 33 33 31 32 29 24 20 16 12 9 6 4 5 4 6 9 14 19 23 26 34 38 38 44 48 50 49 48 48 48 47 46 44 41 43 43 33
38 38 38 40 39 36 35 34 32 31 27 24 21 18 14 11 8 6 6 9 11 14 17 21 25 30 34 34 33 37 39 41 43 46 45 43 42 40 37 38 38 34 29
39 41 43 40 38 37 37 34 33 30 27 24 22 20 18 13 10 8 7 8 11 16 18 22 25 29 33 37 40 38 36 37 39 40 39 37 36 35 36 35 34 32 34
39 40 40 40 40 39 36 32 31 29 27 24 23 21 17 15 11 7 6 6 9 11 14 18 22 26 29 35 41 44 42 32 29 31 31 30 31 34 36 38 38 35 34
37 40 42 42 40 36 35 34 32 28 25 24 20 18 18 15 12 10 8 6 6 9 10 13 16 18 23 27 32 39 45 42 35 30 27 30 34 35 35 35 36 36 36
38 40 42 43 44 42 37 34 31 30 26 22 22 18 16 14 12 10 8 8 7 8 10 10 12 12 13 16 22 28 39 41 39 31 29 31 30 33 34 33 31 30 27
Wind_Direction_850mb
252 238 233 239 226 221 220 226 219 215 212 206 214 218 220 220 218 221 223 223 225 227 223 226 226 222 223 224 224 221 223 222 219 219 220 228 240 248 252 260 264 267 267
249 251 226 229 233 218 223 223 225 217 216 224 225 230 226 222 227 225 224 225 227 229 232 228 229 226 224 221 220 223 222 222 221 219 219 224 236 241 244 249 255 261 262
246 243 236 223 229 227 224 230 227 228 226 224 223 227 229 223 222 224 225 226 227 228 227 231 228 229 227 225 224 228 227 227 220 218 212 196 213 208 228 239 243 254 258
264 242 240 224 221 222 225 226 215 222 224 222 219 218 219 222 224 225 224 225 226 226 226 229 231 230 229 227 227 229 230 229 227 219 221 222 211 193 206 227 240 251 259
245 248 243 247 225 226 233 229 222 216 220 221 224 219 219 224 228 228 227 228 229 230 226 227 231 231 231 231 230 229 228 231 229 225 225 226 229 234 235 239 244 251 259
233 236 241 246 245 237 226 227 217 214 224 224 228 226 222 219 220 227 228 228 227 229 231 228 230 232 231 232 233 232 233 233 236 233 232 235 235 238 237 236 244 252 256
228 227 225 233 240 227 215 217 233 222 222 224 220 226 226 221 223 227 229 230 229 228 230 230 228 231 232 231 233 233 234 234 235 236 236 236 238 243 244 242 241 244 253
164 161 163 168 179 200 213 215 222 222 224 226 226 222 226 223 222 226 231 235 237 236 234 233 232 231 232 233 233 235 235 235 233 235 236 237 239 243 244 245 243 241 248
42 63 93 121 147 157 170 197 210 213 224 235 234 232 229 225 222 222 228 235 240 243 241 239 235 233 234 233 233 234 234 232 233 234 236 237 238 239 242 244 245 245 243
20 25 21 14 135 215 214 211 214 216 217 220 228 235 231 232 230 224 221 231 238 244 244 239 238 236 237 237 234 233 233 232 233 233 234 236 237 238 240 244 245 245 246
26 21 10 2 342 285 257 241 233 227 224 224 222 225 233 234 232 229 229 229 235 239 244 242 239 240 239 237 235 233 232 232 232 232 233 234 236 239 241 243 244 245 246
30 34 30 21 7 340 311 280 259 247 236 227 222 220 224 229 231 232 229 228 232 239 244 243 240 243 242 239 236 233 231 231 231 231 231 231 234 237 239 241 244 246 246
31 42 44 39 31 24 20 8 318 274 256 241 227 221 220 224 228 231 230 227 229 236 238 239 238 237 238 237 235 233 230 230 230 230 230 232 233 235 238 241 243 244 246
28 39 48 41 39 36 38 38 34 17 334 265 234 225 221 223 227 231 232 231 232 235 238 238 240 240 238 239 236 232 228 226 227 227 229 231 233 236 237 238 241 243 247
21 28 39 35 36 37 38 43 42 39 36 25 293 228 227 229 228 226 229 232 234 236 239 241 240 239 238 234 236 230 227 224 223 223 224 226 228 230 233 235 237 240 244
18 27 36 35 32 34 35 37 41 43 43 44 41 2 257 234 232 234 233 231 232 234 236 238 238 239 239 236 233 229 227 222 222 222 220 220 221 224 228 231 233 239 246
19 25 29 31 28 29 30 34 34 36 42 44 42 39 21 275 251 239 238 237 235 235 237 239 240 240 239 238 235 230 223 221 217 217 218 218 220 224 227 237 245 248 251
21 23 25 27 28 29 32 29 31 34 35 36 36 32 33 28 305 238 239 239 239 237 237 238 238 238 239 239 234 229 218 216 215 216 215 216 220 225 228 233 237 241 245
24 23 25 25 28 32 30 27 31 30 29 34 32 26 22 21 24 9 271 247 244 240 237 236 234 234 231 229 232 225 210 209 211 213 221 223 224 223 224 232 237 237 241
23 23 29 30 32 32 30 25 28 27 31 26 22 17 14 13 10 8 4 322 247 241 236 230 225 225 219 216 217 209 207 205 208 212 217 222 228 229 231 235 236 236 237
23 28 33 31 29 25 24 26 25 28 24 18 14 9 1 346 331 307 274 231 195 200 198 201 198 198 199 200 202 204 206 209 209 214 218 222 225 227 228 230 233 239 235
31 32 32 32 29 28 27 24 20 17 12 9 6 4 2 353 331 296 258 235 216 214 206 198 193 187 190 196 202 207 210 214 219 221 221 222 219 220 220 222 231 229 231
32 30 27 26 24 21 19 19 16 10 6 4 3 1 358 351 341 313 281 245 222 219 217 216 215 212 206 205 204 205 218 215 215 220 222 218 215 214 215 218 219 218 220
26 23 22 21 19 15 11 7 1 359 359 1 358 356 352 348 343 324 293 260 235 231 225 228 223 221 217 212 212 208 204 207 210 213 214 215 210 207 208 203 205 212 214
18 10 6 4 360 359 357 355 351 347 346 345 348 352 347 342 333 324 308 284 255 234 226 226 233 229 225 218 213 208 205 202 204 194 193 188 192 194 198 203 209 213 217
7 2 357 349 342 338 335 334 337 337 334 330 328 338 337 330 326 323 327 308 279 243 227 225 224 222 212 199 196 199 201 197 196 196 195 195 200 203 206 210 214 215 215